EW5461 Weather Reports


Display with metric or nautical units.
time (UTC)temp
F
wind
direction
speed
MPH
gust
MPH
rain 1hr
in
rain 24hr
in
rain mn
in
humidity
%
barometer
mb
20260509203115 87 13 3.0 5.0 0.00 0.00 0.00 52 1007.2
20260509201514 88 360 1.0 4.0 0.00 0.00 0.00 49 1007.5
20260509200010 86 147 0.0 6.0 0.00 0.00 0.00 54 1007.6
20260509194508 86 257 2.0 7.0 0.00 0.00 0.00 55 1007.8
20260509193010 85 225 2.0 8.0 0.00 0.00 0.00 57 1008.0
20260509191503 84 198 3.0 8.0 0.00 0.00 0.00 56 1008.2
20260509190004 84 227 5.0 9.0 0.00 0.00 0.00 56 1008.2
20260509184504 85 225 4.0 8.0 0.00 0.00 0.00 54 1008.4
20260509183059 83 121 1.0 8.0 0.00 0.00 0.00 58 1008.7
20260509181601 83 274 1.0 6.0 0.00 0.00 0.00 60 1008.7
20260509180100 81 59 4.0 6.0 0.00 0.00 0.00 59 1008.9
20260509174555 81 355 4.0 10.0 0.00 0.00 0.00 59 1009.0
20260509173053 81 333 2.0 10.0 0.00 0.00 0.00 63 1009.1
20260509171554 80 327 2.0 7.0 0.00 0.00 0.00 63 1009.1
20260509170049 79 288 4.0 12.0 0.00 0.00 0.00 63 1009.2
20260509164551 79 284 4.0 10.0 0.00 0.00 0.00 64 1009.4
20260509163043 78 346 2.0 10.0 0.00 0.00 0.00 65 1009.6
20260509161550 78 347 6.0 11.0 0.00 0.00 0.00 64 1009.7
20260509160040 77 327 5.0 11.0 0.00 0.00 0.00 67 1009.6
20260509154537 76 22 8.0 13.0 0.00 0.00 0.00 66 1009.3
20260509153034 75 296 5.0 11.0 0.00 0.00 0.00 71 1009.3
20260509151530 74 299 5.0 13.0 0.00 0.00 0.00 72 1009.4
20260509150035 73 351 6.0 10.0 0.00 0.00 0.00 75 1009.5
20260509144532 72 299 5.0 10.0 0.00 0.00 0.00 79 1009.7
20260509143025 71 317 3.0 9.0 0.00 0.00 0.00 82 1009.7
20260509141524 70 288 4.0 10.0 0.00 0.00 0.00 83 1009.7
20260509140024 70 271 3.0 9.0 0.00 0.00 0.00 84 1009.9
20260509134524 69 342 3.0 9.0 0.00 0.00 0.00 85 1009.8
20260509133024 68 290 4.0 9.0 0.00 0.00 0.00 84 1009.8
20260509131527 67 309 3.0 6.0 0.00 0.00 0.00 84 1009.7
20260509130026 67 343 2.0 8.0 0.00 0.00 0.00 84 1009.7
20260509124523 66 288 3.0 7.0 0.00 0.00 0.00 85 1009.6
20260509123020 66 273 3.0 8.0 0.00 0.00 0.00 84 1009.6
20260509121526 66 331 3.0 6.0 0.00 0.00 0.00 84 1009.4
20260509120019 67 311 1.0 4.0 0.00 0.00 0.00 83 1009.3
20260509114525 67 279 1.0 3.0 0.00 0.02 0.00 83 1009.2
20260509113018 67 299 2.0 5.0 0.00 0.02 0.00 85 1008.7
20260509111516 67 264 1.0 3.0 0.00 0.02 0.00 85 1008.4
20260509110014 68 313 2.0 5.0 0.00 0.02 0.00 85 1008.3
20260509104513 68 281 1.0 5.0 0.00 0.02 0.00 83 1008.3
20260509103011 68 287 2.0 4.0 0.00 0.02 0.00 81 1008.4
20260509101513 69 306 0.0 3.0 0.00 0.02 0.00 79 1008.3
20260509100019 70 360 1.0 4.0 0.00 0.02 0.00 78 1008.2
20260509094515 70 360 1.0 8.0 0.00 0.02 0.00 77 1008.1
20260509093010 70 43 4.0 10.0 0.00 0.02 0.00 75 1007.3
20260509091515 69 53 4.0 12.0 0.00 0.02 0.00 82 1006.7
20260509090008 69 153 1.0 7.0 0.00 0.02 0.00 83 1005.7
20260509084511 69 157 2.0 10.0 0.00 0.02 0.00 83 1005.5
20260509083004 69 182 5.0 11.0 0.00 0.02 0.00 82 1005.6
20260509081600 71 164 6.0 11.0 0.00 0.02 0.00 76 1005.4
20260509080056 71 344 1.0 3.0 0.00 0.02 0.00 73 1005.8
20260509074602 70 344 2.0 15.0 0.00 0.02 0.00 77 1007.0
20260509073046 68 175 2.0 7.0 0.00 0.02 0.00 89 1008.2
20260509071542 68 169 1.0 7.0 0.00 0.02 0.00 90 1008.8
20260509070039 69 191 5.0 8.0 0.00 0.02 0.00 91 1009.4
20260509064546 69 200 4.0 9.0 0.00 0.02 0.00 91 1010.1
20260509063042 69 225 4.0 8.0 0.00 0.02 0.00 91 1010.4
20260509061532 68 346 1.0 3.0 0.00 0.02 0.00 90 1010.2
20260509060033 69 346 1.0 3.0 0.00 0.02 0.00 89 1010.3
20260509054529 69 360 0.0 3.0 0.00 0.02 0.00 89 1009.8
20260509053028 69 360 0.0 5.0 0.00 0.02 0.00 88 1010.1
20260509051534 69 360 2.0 5.0 0.00 0.02 0.00 88 1010.3
20260509050024 70 188 0.0 2.0 0.00 0.02 0.00 86 1009.8
20260509044523 70 176 0.0 5.0 0.00 0.02 0.02 86 1008.9
20260509043023 71 156 1.0 7.0 0.00 0.02 0.02 86 1008.9
20260509041522 71 78 0.0 2.0 0.00 0.02 0.02 85 1008.9
20260509040021 71 78 0.0 2.0 0.00 0.02 0.02 85 1009.0
20260509034538 71 78 0.0 2.0 0.00 0.02 0.02 85 1009.1
20260509033020 71 78 0.0 4.0 0.00 0.02 0.02 84 1008.8
20260509031520 72 113 0.0 5.0 0.00 0.02 0.02 83 1008.2
20260509030022 72 48 2.0 8.0 0.00 0.02 0.02 83 1007.3
20260509024519 72 109 1.0 7.0 0.00 0.02 0.02 82 1007.5
20260509023018 72 157 2.0 7.0 0.00 0.02 0.02 81 1007.0
20260509021520 72 180 1.0 8.0 0.00 0.02 0.02 80 1006.8
20260509020016 73 109 2.0 7.0 0.00 0.02 0.02 80 1006.5
20260509014515 73 161 1.0 5.0 0.00 0.02 0.02 80 1007.1
20260509013016 73 161 1.0 5.0 0.00 0.02 0.02 79 1007.3
20260509011513 73 178 2.0 7.0 0.00 0.02 0.02 79 1007.2
20260509010015 73 160 0.0 7.0 0.00 0.02 0.02 79 1007.0
20260509004511 73 181 2.0 8.0 0.00 0.02 0.02 79 1006.8
20260509003011 73 178 3.0 7.0 0.00 0.02 0.02 78 1006.8
20260509001509 73 175 4.0 12.0 0.00 0.02 0.02 79 1006.7
20260509000007 73 179 5.0 10.0 0.00 0.02 0.02 78 1006.9
20260508234507 73 186 4.0 9.0 0.00 0.02 0.02 77 1007.0
20260508233004 73 142 4.0 9.0 0.00 0.02 0.02 77 1007.0
20260508231507 73 175 3.0 7.0 0.00 0.02 0.02 76 1007.1
20260508230003 74 200 5.0 8.0 0.00 0.02 0.02 74 1007.2
20260508224505 74 134 1.0 8.0 0.00 0.02 0.02 73 1007.2
20260508223001 75 144 3.0 9.0 0.00 0.02 0.02 73 1007.2
20260508221604 75 165 3.0 10.0 0.00 0.02 0.02 71 1007.3
20260508220101 75 165 6.0 16.0 0.00 0.02 0.02 71 1007.2
20260508214608 76 99 1.0 16.0 0.00 0.02 0.02 71 1007.3
20260508213055 76 124 7.0 14.0 0.00 0.02 0.02 68 1007.5
20260508211555 77 113 4.0 10.0 0.00 0.02 0.02 65 1007.8
20260508210053 77 129 1.0 9.0 0.00 0.02 0.02 68 1008.0
20260508204547 75 182 3.0 10.0 0.00 0.02 0.02 68 1008.3